Tracking 29093 objects as of 15-Jul-2024
HD Live streaming from Space Station
objects crossing your sky now

STARLINK-5320

Track STARLINK-5320 now!
10-day predictions
STARLINK-5320 is classified as:


NORAD ID: 55289
Int'l Code: 2023-010W
Perigee: 577.2 km
Apogee: 581.3 km
Inclination: 70.0 °
Period: 96.1 minutes
Semi major axis: 6950 km
RCS: Unknown
Launch date: January 19, 2023
Source: United States (US)
Launch site: AIR FORCE WESTERN TEST RANGE (AFWTR)
Your satellite tracking list
Your tracking list is empty




NASA's NSSDC Master Catalog

Two Line Element Set (TLE):
1 55289U 23010W   24196.89125735  .00003368  00000-0  29003-3 0  9994
2 55289  70.0002 104.4127 0002929 268.3842  91.6981 14.98312539 82665
Source of the keplerian elements: AFSPC